Weather History for Hereford, TX

Change the Weather History Date:

Monday, November 26, 2012

  Actual Average (KAMA) Record (KAMA)
Temperature  
Mean Temperature 36 °F 42 °F  
Max Temperature 50 °F 55 °F 80 °F (1995)
Min Temperature 23 °F 28 °F 3 °F (1980)
Degree Days  
Heating Degree Days 28 24  
Month to date heating degree days 466  
Since 1 July heating degree days 746  
Cooling Degree Days 0 0  
Month to date cooling degree days 0  
Year to date cooling degree days 1398  
Moisture  
Dew Point 23 °F    
Average Humidity 59    
Maximum Humidity 80    
Minimum Humidity 40    
Precipitation  
Precipitation 0.00 in 0.02 in 0.57 in (1931)
Month to date precipitation 0.73  
Year to date precipitation 19.58  
Snow  
Snow 0.00 in 0.10 in 7.00 in (1931)
Month to date snowfall 2.1  
Since 1 July snowfall 2.3  
Since 1 September snowfall 2.3  
Snow Depth -    
Sea Level Pressure  
Sea Level Pressure 30.15 in    
Wind  
Wind Speed 16 mph (North)    
Max Wind Speed 26 mph    
Max Gust Speed 48 mph    
Visibility 10 miles    
Events      
T = Trace of Precipitation, MM = Missing Value Source: NWS Daily Summary

Daily Weather History Graph

Daily Weather History Graph

Search for Another Location

Airport:

Trip Planner

Search our weather history database for the weather conditions in past years. The results will help you decide how hot, cold, wet, or windy it might be!

Date:

Astronomy

Nov. 26, 2012 Rise Set
Actual Time 7:34 AM CST 5:38 PM CST
Civil Twilight 7:07 AM CST 6:06 PM CST
Nautical Twilight 6:36 AM CST 6:37 PM CST
Astronomical Twilight 6:05 AM CST 7:07 PM CST
Moon 4:30 PM CST (11/26) 5:49 AM CST (11/26)
Length of Visible Light 10h 59m
Length of Day
10h 04m
Waxing Gibbous, 97% of the Moon is Illuminated
Nov 26
Waxing Gibbous
Nov 28
Full
Dec 6
Last Quarter
Dec 13
New
Dec 19
First Quarter

Hourly Weather History & Observations

Time (CST) Temp. Windchill Dew Point Humidity Pressure Visibility Wind Dir Wind Speed Gust Speed Precip Events Conditions
12:15 AM 37.4 °F 26.9 °F 15.8 °F 41% 29.86 in 10.0 mi WNW 20.7 mph - N/A   Clear
12:35 AM 35.6 °F 28.0 °F 15.8 °F 44% 29.86 in 10.0 mi West 10.4 mph 18.4 mph N/A   Clear
12:55 AM 33.8 °F 21.0 °F 15.8 °F 48% 29.86 in 10.0 mi NW 25.3 mph - N/A   Clear
1:15 AM 32.0 °F 18.9 °F 17.6 °F 55% 29.86 in 10.0 mi NW 24.2 mph - N/A   Clear
1:35 AM 33.8 °F 22.2 °F 17.6 °F 52% 29.87 in 10.0 mi WNW 20.7 mph 24.2 mph N/A   Clear
1:55 AM 37.4 °F 29.3 °F 17.6 °F 45% 29.88 in 10.0 mi West 12.7 mph - N/A   Clear
2:15 AM 37.4 °F 28.5 °F 15.8 °F 41% 29.88 in 10.0 mi WNW 15.0 mph 26.5 mph N/A   Clear
2:35 AM 35.6 °F 24.2 °F 15.8 °F 44% 29.88 in 10.0 mi NW 21.9 mph 25.3 mph N/A   Clear
2:55 AM 35.6 °F 27.1 °F 17.6 °F 48% 29.88 in 10.0 mi WNW 12.7 mph 25.3 mph N/A   Clear
3:15 AM 35.6 °F 27.1 °F 17.6 °F 48% 29.89 in 10.0 mi West 12.7 mph 25.3 mph N/A   Clear
3:35 AM 33.8 °F 21.9 °F 17.6 °F 52% 29.90 in 10.0 mi NW 21.9 mph 26.5 mph N/A   Clear
3:55 AM 32.0 °F 24.8 °F 17.6 °F 55% 29.91 in 10.0 mi West 8.1 mph 25.3 mph N/A   Clear
4:15 AM 32.0 °F 19.8 °F 17.6 °F 55% 29.91 in 10.0 mi NW 20.7 mph - N/A   Clear
4:35 AM 32.0 °F - 17.6 °F 55% 29.92 in 10.0 mi North - - N/A   Clear
4:55 AM 33.8 °F 28.6 °F 17.6 °F 52% 29.93 in 10.0 mi North 5.8 mph 25.3 mph N/A   Clear
5:15 AM 32.0 °F 25.6 °F 19.4 °F 60% 29.95 in 10.0 mi North 6.9 mph - N/A   Clear
5:35 AM 32.0 °F 24.8 °F 19.4 °F 60% 29.96 in 10.0 mi North 8.1 mph - N/A   Clear
5:55 AM 32.0 °F 26.4 °F 19.4 °F 60% 29.98 in 10.0 mi North 5.8 mph - N/A   Clear
6:15 AM 32.0 °F 26.4 °F 19.4 °F 60% 29.99 in 10.0 mi North 5.8 mph - N/A   Clear
6:35 AM 30.2 °F 24.3 °F 19.4 °F 64% 30.00 in 10.0 mi North 5.8 mph - N/A   Clear
6:55 AM 30.2 °F 23.4 °F 19.4 °F 64% 30.01 in 10.0 mi NNW 6.9 mph - N/A   Clear
7:15 AM 28.4 °F 19.7 °F 19.4 °F 69% 30.03 in 10.0 mi North 9.2 mph - N/A   Clear
7:35 AM 30.2 °F 21.3 °F 19.4 °F 64% 30.05 in 10.0 mi North 10.4 mph - N/A   Clear
7:55 AM 30.2 °F 20.2 °F 21.2 °F 69% 30.06 in 10.0 mi North 12.7 mph - N/A   Clear
8:15 AM 32.0 °F 24.2 °F 21.2 °F 64% 30.08 in 10.0 mi North 9.2 mph - N/A   Clear
8:35 AM 32.0 °F 22.5 °F 23.0 °F 69% 30.09 in 10.0 mi North 12.7 mph - N/A   Clear
8:55 AM 33.8 °F 24.3 °F 23.0 °F 65% 30.11 in 10.0 mi North 13.8 mph 20.7 mph N/A   Clear
9:15 AM 35.6 °F 25.5 °F 26.6 °F 70% 30.12 in 10.0 mi NNE 17.3 mph 26.5 mph N/A   Clear
9:35 AM 35.6 °F 26.2 °F 26.6 °F 70% 30.13 in 10.0 mi NNE 15.0 mph - N/A   Clear
9:55 AM 39.2 °F 30.8 °F 26.6 °F 61% 30.13 in 10.0 mi North 15.0 mph - N/A   Clear
10:15 AM 41.0 °F 33.1 °F 28.4 °F 61% 30.14 in 10.0 mi North 15.0 mph 19.6 mph N/A   Clear
10:35 AM 42.8 °F - 28.4 °F 57% 30.16 in 10.0 mi North - - N/A   Clear
10:55 AM 44.6 °F 38.1 °F 28.4 °F 53% 30.16 in 10.0 mi NNE 13.8 mph 29.9 mph N/A   Clear
11:15 AM 44.6 °F 36.6 °F 28.4 °F 53% 30.17 in 10.0 mi NNE 19.6 mph 33.4 mph N/A   Clear
11:35 AM 46.4 °F 39.0 °F 28.4 °F 50% 30.17 in 10.0 mi NNE 19.6 mph 31.1 mph N/A   Clear
11:55 AM 46.4 °F 38.7 °F 28.4 °F 50% 30.18 in 10.0 mi NNE 20.7 mph 34.5 mph N/A   Clear
12:15 PM 46.4 °F 38.5 °F 28.4 °F 50% 30.19 in 10.0 mi NNE 21.9 mph 31.1 mph N/A   Clear
12:35 PM 46.4 °F 39.5 °F 28.4 °F 50% 30.19 in 10.0 mi NNE 17.3 mph 28.8 mph N/A   Clear
12:55 PM 50.0 °F - 28.4 °F 43% 30.20 in 10.0 mi NNE 21.9 mph 35.7 mph N/A   Clear
1:15 PM 50.0 °F - 28.4 °F 43% 30.20 in 10.0 mi NNE 24.2 mph 32.2 mph N/A   Clear
1:35 PM 50.0 °F - 28.4 °F 43% 30.20 in 10.0 mi NNE 21.9 mph 32.2 mph N/A   Clear
1:55 PM 50.0 °F - 26.6 °F 40% 30.20 in 10.0 mi NNE 26.5 mph 40.3 mph N/A   Clear
2:15 PM 48.2 °F - 26.6 °F 43% 30.21 in 10.0 mi NNE 23.0 mph 43.7 mph N/A   Clear
2:35 PM 50.0 °F - 28.4 °F 43% 30.22 in 10.0 mi NNE 26.5 mph 39.1 mph N/A   Clear
2:55 PM 48.2 °F - 28.4 °F 46% 30.22 in 10.0 mi NE 26.5 mph 48.3 mph N/A   Clear
3:15 PM 46.4 °F 38.1 °F 28.4 °F 50% 30.23 in 10.0 mi NNE 24.2 mph 43.7 mph N/A   Clear
3:35 PM 46.4 °F 38.1 °F 28.4 °F 50% 30.24 in 10.0 mi NNE 24.2 mph 41.4 mph N/A   Clear
3:55 PM 44.6 °F 35.3 °F 28.4 °F 53% 30.24 in 10.0 mi NE 26.5 mph 40.3 mph N/A   Clear
4:15 PM 44.6 °F 36.1 °F 28.4 °F 53% 30.26 in 10.0 mi NE 21.9 mph 44.9 mph N/A   Clear
4:35 PM 44.6 °F - 28.4 °F 53% 30.26 in 10.0 mi North - - N/A   Clear
4:55 PM 42.8 °F - 28.4 °F 57% 30.27 in 10.0 mi North - - N/A   Clear
5:15 PM 42.8 °F 33.1 °F 28.4 °F 57% 30.27 in 10.0 mi NE 25.3 mph - N/A   Clear
5:35 PM 41.0 °F 31.4 °F 28.4 °F 61% 30.28 in 10.0 mi NE 21.9 mph 36.8 mph N/A   Clear
5:55 PM 37.4 °F 27.8 °F 26.6 °F 65% 30.29 in 10.0 mi NE 17.3 mph 25.3 mph N/A   Clear
6:15 PM 37.4 °F 28.5 °F 26.6 °F 65% 30.31 in 10.0 mi NE 15.0 mph 28.8 mph N/A   Clear
6:35 PM 35.6 °F 28.0 °F 26.6 °F 70% 30.32 in 10.0 mi NNE 10.4 mph - N/A   Clear
6:55 PM 33.8 °F 26.4 °F 26.6 °F 75% 30.33 in 10.0 mi NE 9.2 mph - N/A   Clear
7:15 PM 33.8 °F 26.4 °F 26.6 °F 75% 30.35 in 10.0 mi NNE 9.2 mph - N/A   Clear
7:35 PM 33.8 °F 25.3 °F 26.6 °F 75% 30.35 in 10.0 mi NNE 11.5 mph - N/A   Clear
7:55 PM 32.0 °F 24.8 °F 24.8 °F 75% 30.37 in 10.0 mi NE 8.1 mph - N/A   Clear
8:15 PM 32.0 °F 23.6 °F 23.0 °F 69% 30.37 in 10.0 mi NE 10.4 mph 19.6 mph N/A   Clear
8:35 PM 32.0 °F 24.8 °F 23.0 °F 69% 30.38 in 10.0 mi NE 8.1 mph - N/A   Clear
8:55 PM 30.2 °F 22.6 °F 21.2 °F 69% 30.38 in 10.0 mi NNE 8.1 mph - N/A   Clear
9:15 PM 28.4 °F 21.2 °F 21.2 °F 74% 30.39 in 10.0 mi NNE 6.9 mph - N/A   Clear
9:35 PM 30.2 °F 22.6 °F 21.2 °F 69% 30.40 in 10.0 mi NNE 8.1 mph - N/A   Clear
9:55 PM 28.4 °F 24.6 °F 21.2 °F 74% 30.40 in 10.0 mi NNE 3.5 mph - N/A   Clear
10:15 PM 26.6 °F 20.0 °F 19.4 °F 74% 30.40 in 10.0 mi North 5.8 mph - N/A   Clear
10:55 PM 24.8 °F 17.9 °F 19.4 °F 80% 30.41 in 10.0 mi North 5.8 mph - N/A   Clear
11:15 PM 24.8 °F 17.9 °F 19.4 °F 80% 30.41 in 10.0 mi NNW 5.8 mph - N/A   Clear
11:35 PM 23.0 °F 9.6 °F 17.6 °F 80% 30.42 in 10.0 mi NNW 16.1 mph 26.5 mph N/A   Clear
11:55 PM 23.0 °F 6.3 °F 17.6 °F 80% 30.43 in 10.0 mi NNW 26.5 mph - N/A   Clear